Time,TemperatureF,DewpointF,PressureIn,WindDirection,WindDirectionDegrees,WindSpeedMPH,WindSpeedGustMPH,Humidity,HourlyPrecipIn,Conditions,Clouds,dailyrainin,SoftwareType,DateUTC
2013-04-21 00:02:00,49.0,42.0,30.21,NNE,21,0.0,12.0,77,0.00,,,0.00,,2013-04-21 05:02:00,
2013-04-21 00:12:00,49.0,42.0,30.21,NNE,21,0.0,12.0,77,0.00,,,0.00,,2013-04-21 05:12:00,
2013-04-21 00:22:00,49.0,42.0,30.21,NNE,21,0.0,12.0,78,0.00,,,0.00,,2013-04-21 05:22:00,
2013-04-21 00:32:00,48.0,42.0,30.21,NNE,21,0.0,0.0,79,0.00,,,0.00,,2013-04-21 05:32:00,
2013-04-21 00:42:00,48.0,42.0,30.21,NNE,21,0.0,0.0,79,0.00,,,0.00,,2013-04-21 05:42:00,
2013-04-21 00:52:00,48.0,42.0,30.22,NNE,21,0.0,0.0,79,0.00,,,0.00,,2013-04-21 05:52:00,
2013-04-21 01:01:00,48.0,42.0,30.22,NNE,21,0.0,0.0,79,0.00,,,0.00,,2013-04-21 06:01:00,
2013-04-21 01:12:00,47.0,41.0,30.22,NNE,21,0.0,0.0,79,0.00,,,0.00,,2013-04-21 06:12:00,
2013-04-21 01:21:00,47.0,41.0,30.22,NNE,21,0.0,0.0,79,0.00,,,0.00,,2013-04-21 06:21:00,
2013-04-21 01:32:00,48.0,42.0,30.21,NNE,21,0.0,0.0,80,0.00,,,0.00,,2013-04-21 06:32:00,
2013-04-21 01:42:00,48.0,42.0,30.21,NNE,21,0.0,0.0,80,0.00,,,0.00,,2013-04-21 06:42:00,
2013-04-21 01:52:00,48.0,42.0,30.21,NNE,21,0.0,0.0,81,0.00,,,0.00,,2013-04-21 06:52:00,
2013-04-21 02:01:00,48.0,42.0,30.20,NNE,21,0.0,0.0,81,0.00,,,0.00,,2013-04-21 07:01:00,
2013-04-21 02:11:00,47.0,41.0,30.20,NNE,21,0.0,0.0,81,0.00,,,0.00,,2013-04-21 07:11:00,
2013-04-21 02:21:00,47.0,41.0,30.20,NNE,21,0.0,0.0,81,0.00,,,0.00,,2013-04-21 07:21:00,
2013-04-21 02:31:00,47.0,41.0,30.20,NNE,21,0.0,0.0,81,0.00,,,0.00,,2013-04-21 07:31:00,
2013-04-21 02:41:00,47.0,41.0,30.20,NNE,21,0.0,0.0,81,0.00,,,0.00,,2013-04-21 07:41:00,
2013-04-21 02:52:00,47.0,41.0,30.20,NNE,21,0.0,0.0,81,0.00,,,0.00,,2013-04-21 07:52:00,
2013-04-21 03:01:00,46.0,41.0,30.20,NNE,21,0.0,0.0,81,0.00,,,0.00,,2013-04-21 08:01:00,
2013-04-21 03:12:00,46.0,41.0,30.20,NNE,21,0.0,0.0,83,0.00,,,0.00,,2013-04-21 08:12:00,
2013-04-21 03:21:00,46.0,41.0,30.20,NNE,21,0.0,0.0,83,0.00,,,0.00,,2013-04-21 08:21:00,
2013-04-21 03:32:00,46.0,41.0,30.20,NNE,21,0.0,0.0,84,0.00,,,0.00,,2013-04-21 08:32:00,
2013-04-21 03:41:00,46.0,41.0,30.20,NNE,21,0.0,0.0,84,0.00,,,0.00,,2013-04-21 08:41:00,
2013-04-21 03:52:00,46.0,42.0,30.20,NNE,21,0.0,0.0,85,0.00,,,0.00,,2013-04-21 08:52:00,
2013-04-21 04:01:00,46.0,42.0,30.19,NNE,21,0.0,0.0,85,0.00,,,0.00,,2013-04-21 09:01:00,
2013-04-21 04:11:00,46.0,42.0,30.19,NNE,21,0.0,0.0,85,0.00,,,0.00,,2013-04-21 09:11:00,
2013-04-21 04:21:00,46.0,42.0,30.19,NNE,21,0.0,0.0,85,0.00,,,0.00,,2013-04-21 09:21:00,
2013-04-21 04:32:00,46.0,42.0,30.19,NNE,21,0.0,0.0,85,0.00,,,0.00,,2013-04-21 09:32:00,
2013-04-21 04:43:00,46.0,42.0,30.19,NNE,21,0.0,0.0,85,0.00,,,0.00,,2013-04-21 09:43:00,
2013-04-21 04:53:00,46.0,42.0,30.19,NNE,21,0.0,0.0,86,0.00,,,0.00,,2013-04-21 09:53:00,
2013-04-21 05:02:00,45.0,41.0,30.19,NNE,21,0.0,0.0,86,0.00,,,0.00,,2013-04-21 10:02:00,
2013-04-21 05:12:00,45.0,41.0,30.19,NNE,21,0.0,0.0,87,0.00,,,0.00,,2013-04-21 10:12:00,
2013-04-21 05:22:00,45.0,41.0,30.19,NNE,21,0.0,0.0,87,0.00,,,0.00,,2013-04-21 10:22:00,
2013-04-21 05:32:00,45.0,41.0,30.20,NNE,21,0.0,0.0,86,0.00,,,0.00,,2013-04-21 10:32:00,
2013-04-21 05:42:00,45.0,41.0,30.20,NNE,21,0.0,0.0,86,0.00,,,0.00,,2013-04-21 10:42:00,
2013-04-21 05:52:00,45.0,41.0,30.20,NNE,21,0.0,0.0,87,0.00,,,0.00,,2013-04-21 10:52:00,
2013-04-21 06:02:00,44.0,41.0,30.20,NNE,21,0.0,0.0,88,0.00,,,0.00,,2013-04-21 11:02:00,
2013-04-21 06:12:00,44.0,41.0,30.20,NNE,21,0.0,0.0,88,0.00,,,0.00,,2013-04-21 11:12:00,
2013-04-21 06:22:00,44.0,41.0,30.20,NNE,21,0.0,0.0,88,0.00,,,0.00,,2013-04-21 11:22:00,
2013-04-21 06:34:00,43.0,40.0,30.21,NNE,21,0.0,0.0,89,0.00,,,0.00,,2013-04-21 11:34:00,
2013-04-21 06:42:00,43.0,40.0,30.22,NNE,24,0.0,0.0,89,0.00,,,0.00,,2013-04-21 11:42:00,
2013-04-21 06:52:00,43.0,40.0,30.22,NNE,24,0.0,0.0,89,0.00,,,0.00,,2013-04-21 11:52:00,
2013-04-21 07:02:00,43.0,40.0,30.22,NNE,24,0.0,0.0,89,0.00,,,0.00,,2013-04-21 12:02:00,
2013-04-21 07:12:00,42.0,39.0,30.23,NNE,24,0.0,0.0,89,0.00,,,0.00,,2013-04-21 12:12:00,
2013-04-21 07:22:00,42.0,39.0,30.23,NNE,24,0.0,0.0,89,0.00,,,0.00,,2013-04-21 12:22:00,
2013-04-21 07:32:00,43.0,40.0,30.24,NNE,24,0.0,0.0,90,0.00,,,0.00,,2013-04-21 12:32:00,
2013-04-21 07:42:00,43.0,40.0,30.24,NNE,24,0.0,0.0,90,0.00,,,0.00,,2013-04-21 12:42:00,
2013-04-21 07:52:00,43.0,40.0,30.24,NNE,24,0.0,0.0,90,0.00,,,0.00,,2013-04-21 12:52:00,
2013-04-21 08:01:00,44.0,42.0,30.24,NNE,24,0.0,0.0,91,0.00,,,0.00,,2013-04-21 13:01:00,
2013-04-21 08:11:00,45.0,43.0,30.25,NNE,24,0.0,0.0,92,0.00,,,0.00,,2013-04-21 13:11:00,
2013-04-21 08:21:00,45.0,43.0,30.25,NNE,24,0.0,0.0,92,0.00,,,0.00,,2013-04-21 13:21:00,
2013-04-21 08:32:00,47.0,45.0,30.24,NNE,24,0.0,0.0,92,0.00,,,0.00,,2013-04-21 13:32:00,
2013-04-21 08:42:00,47.0,45.0,30.24,NNE,24,0.0,0.0,92,0.00,,,0.00,,2013-04-21 13:42:00,
2013-04-21 08:52:00,49.0,45.0,30.25,NNE,28,0.0,0.0,85,0.00,,,0.00,,2013-04-21 13:52:00,
2013-04-21 09:01:00,51.0,45.0,30.25,SE,124,0.0,2.0,80,0.00,,,0.00,,2013-04-21 14:01:00,
2013-04-21 09:11:00,53.0,46.0,30.25,NNE,22,0.0,4.0,76,0.00,,,0.00,,2013-04-21 14:11:00,
2013-04-21 09:21:00,53.0,46.0,30.25,NNE,22,0.0,4.0,76,0.00,,,0.00,,2013-04-21 14:21:00,
2013-04-21 09:32:00,55.0,46.0,30.25,NNE,20,1.0,4.0,72,0.00,,,0.00,,2013-04-21 14:32:00,
2013-04-21 09:42:00,55.0,46.0,30.25,NNE,20,1.0,4.0,72,0.00,,,0.00,,2013-04-21 14:42:00,
2013-04-21 09:52:00,56.0,46.0,30.25,SSE,163,0.0,5.0,70,0.00,,,0.00,,2013-04-21 14:52:00,
2013-04-21 10:02:00,59.0,46.0,30.25,NNE,23,1.0,6.0,62,0.00,,,0.00,,2013-04-21 15:02:00,
2013-04-21 10:11:00,59.0,46.0,30.25,NNE,23,1.0,6.0,62,0.00,,,0.00,,2013-04-21 15:11:00,
2013-04-21 10:22:00,62.0,46.0,30.26,ESE,105,1.0,7.0,55,0.00,,,0.00,,2013-04-21 15:22:00,
2013-04-21 10:33:00,64.0,46.0,30.25,NE,55,1.0,7.0,52,0.00,,,0.00,,2013-04-21 15:33:00,
2013-04-21 10:42:00,64.0,46.0,30.25,NE,55,1.0,7.0,52,0.00,,,0.00,,2013-04-21 15:42:00,
2013-04-21 10:53:00,65.0,44.0,30.25,NNE,33,3.0,7.0,47,0.00,,,0.00,,2013-04-21 15:53:00,
2013-04-21 11:03:00,66.0,45.0,30.25,ESE,118,1.0,7.0,47,0.00,,,0.00,,2013-04-21 16:03:00,
2013-04-21 11:12:00,68.0,43.0,30.24,North,8,3.0,7.0,41,0.00,,,0.00,,2013-04-21 16:12:00,
2013-04-21 11:22:00,68.0,43.0,30.24,North,8,3.0,7.0,41,0.00,,,0.00,,2013-04-21 16:22:00,
2013-04-21 11:32:00,68.0,43.0,30.24,SSW,199,0.0,11.0,41,0.00,,,0.00,,2013-04-21 16:32:00,
2013-04-21 11:42:00,68.0,43.0,30.24,SSW,199,0.0,11.0,41,0.00,,,0.00,,2013-04-21 16:42:00,
2013-04-21 11:52:00,68.0,42.0,30.24,NE,43,0.0,11.0,39,0.00,,,0.00,,2013-04-21 16:52:00,
2013-04-21 12:02:00,69.0,42.0,30.23,SSW,211,1.0,11.0,38,0.00,,,0.00,,2013-04-21 17:02:00,
2013-04-21 12:12:00,70.0,43.0,30.22,SW,216,1.0,11.0,38,0.00,,,0.00,,2013-04-21 17:12:00,
2013-04-21 12:22:00,70.0,43.0,30.22,SW,216,1.0,11.0,38,0.00,,,0.00,,2013-04-21 17:22:00,
2013-04-21 12:32:00,70.0,43.0,30.21,ESE,107,0.0,11.0,38,0.00,,,0.00,,2013-04-21 17:32:00,
2013-04-21 12:42:00,70.0,43.0,30.21,ESE,107,0.0,11.0,38,0.00,,,0.00,,2013-04-21 17:42:00,
2013-04-21 12:52:00,70.0,41.0,30.21,SSE,151,0.0,11.0,35,0.00,,,0.00,,2013-04-21 17:52:00,
2013-04-21 13:02:00,71.0,42.0,30.19,NE,43,6.0,11.0,35,0.00,,,0.00,,2013-04-21 18:02:00,
2013-04-21 13:11:00,71.0,42.0,30.19,NE,43,6.0,11.0,35,0.00,,,0.00,,2013-04-21 18:11:00,
2013-04-21 13:22:00,71.0,44.0,30.19,NE,43,1.0,11.0,38,0.00,,,0.00,,2013-04-21 18:22:00,
2013-04-21 13:32:00,72.0,44.0,30.19,East,84,1.0,11.0,36,0.00,,,0.00,,2013-04-21 18:32:00,
2013-04-21 13:42:00,72.0,44.0,30.19,East,84,1.0,11.0,36,0.00,,,0.00,,2013-04-21 18:42:00,
2013-04-21 13:52:00,72.0,44.0,30.18,SSW,207,1.0,11.0,36,0.00,,,0.00,,2013-04-21 18:52:00,
2013-04-21 14:02:00,73.0,41.0,30.18,SSE,153,0.0,11.0,32,0.00,,,0.00,,2013-04-21 19:02:00,
2013-04-21 14:12:00,73.0,41.0,30.18,SSE,153,0.0,11.0,32,0.00,,,0.00,,2013-04-21 19:12:00,
2013-04-21 14:21:00,73.0,41.0,30.18,NE,38,0.0,11.0,31,0.00,,,0.00,,2013-04-21 19:21:00,
2013-04-21 14:32:00,73.0,42.0,30.17,ENE,58,0.0,11.0,33,0.00,,,0.00,,2013-04-21 19:32:00,
2013-04-21 14:42:00,73.0,42.0,30.17,ENE,58,0.0,11.0,33,0.00,,,0.00,,2013-04-21 19:42:00,
2013-04-21 14:52:00,74.0,41.0,30.17,SE,134,1.0,11.0,30,0.00,,,0.00,,2013-04-21 19:52:00,
2013-04-21 15:01:00,75.0,45.0,30.16,NNW,328,0.0,11.0,35,0.00,,,0.00,,2013-04-21 20:01:00,
2013-04-21 15:11:00,74.0,42.0,30.15,ESE,118,1.0,11.0,32,0.00,,,0.00,,2013-04-21 20:11:00,
2013-04-21 15:22:00,74.0,42.0,30.15,ESE,118,1.0,11.0,32,0.00,,,0.00,,2013-04-21 20:22:00,
2013-04-21 15:31:00,75.0,43.0,30.14,NNE,33,1.0,11.0,32,0.00,,,0.00,,2013-04-21 20:31:00,
2013-04-21 15:42:00,75.0,43.0,30.14,NNE,33,1.0,11.0,32,0.00,,,0.00,,2013-04-21 20:42:00,
2013-04-21 15:52:00,75.0,42.0,30.14,NE,38,0.0,11.0,31,0.00,,,0.00,,2013-04-21 20:52:00,
2013-04-21 16:02:00,74.0,42.0,30.14,North,11,0.0,11.0,32,0.00,,,0.00,,2013-04-21 21:02:00,
2013-04-21 16:12:00,75.0,41.0,30.13,West,281,0.0,11.0,29,0.00,,,0.00,,2013-04-21 21:12:00,
2013-04-21 16:21:00,75.0,41.0,30.13,West,281,0.0,11.0,29,0.00,,,0.00,,2013-04-21 21:21:00,
2013-04-21 16:33:00,75.0,41.0,30.12,NNE,28,2.0,11.0,30,0.00,,,0.00,,2013-04-21 21:33:00,
2013-04-21 16:43:00,75.0,41.0,30.12,NNE,28,2.0,11.0,30,0.00,,,0.00,,2013-04-21 21:43:00,
2013-04-21 16:53:00,74.0,41.0,30.12,North,353,0.0,11.0,30,0.00,,,0.00,,2013-04-21 21:53:00,
2013-04-21 17:02:00,74.0,39.0,30.12,NNE,20,3.0,11.0,28,0.00,,,0.00,,2013-04-21 22:02:00,
2013-04-21 17:12:00,75.0,41.0,30.12,NNE,20,0.0,11.0,29,0.00,,,0.00,,2013-04-21 22:12:00,
2013-04-21 17:22:00,75.0,41.0,30.12,NNE,20,0.0,11.0,29,0.00,,,0.00,,2013-04-21 22:22:00,
2013-04-21 17:33:00,75.0,40.0,30.12,ENE,69,0.0,11.0,28,0.00,,,0.00,,2013-04-21 22:33:00,
2013-04-21 17:43:00,75.0,40.0,30.12,ENE,69,0.0,11.0,28,0.00,,,0.00,,2013-04-21 22:43:00,
2013-04-21 17:52:00,75.0,41.0,30.12,North,2,0.0,11.0,29,0.00,,,0.00,,2013-04-21 22:52:00,
2013-04-21 18:02:00,74.0,40.0,30.12,NNE,29,0.0,11.0,29,0.00,,,0.00,,2013-04-21 23:02:00,
2013-04-21 18:12:00,74.0,40.0,30.12,NNE,29,0.0,11.0,29,0.00,,,0.00,,2013-04-21 23:12:00,
2013-04-21 18:22:00,74.0,41.0,30.13,NNE,22,1.0,11.0,30,0.00,,,0.00,,2013-04-21 23:22:00,
2013-04-21 18:32:00,73.0,41.0,30.13,ENE,68,0.0,11.0,32,0.00,,,0.00,,2013-04-21 23:32:00,
2013-04-21 18:42:00,73.0,41.0,30.13,ENE,68,0.0,11.0,32,0.00,,,0.00,,2013-04-21 23:42:00,
2013-04-21 18:52:00,72.0,44.0,30.13,SSE,168,0.0,11.0,36,0.00,,,0.00,,2013-04-21 23:52:00,
2013-04-21 19:01:00,71.0,43.0,30.14,SSE,168,0.0,11.0,36,0.00,,,0.00,,2013-04-22 00:01:00,
2013-04-21 19:11:00,71.0,43.0,30.14,SSE,168,0.0,11.0,36,0.00,,,0.00,,2013-04-22 00:11:00,
2013-04-21 19:21:00,68.0,43.0,30.14,SSE,168,0.0,11.0,40,0.00,,,0.00,,2013-04-22 00:21:00,
2013-04-21 19:32:00,66.0,43.0,30.14,SSE,168,0.0,11.0,43,0.00,,,0.00,,2013-04-22 00:32:00,
2013-04-21 19:42:00,66.0,43.0,30.14,SSE,168,0.0,11.0,43,0.00,,,0.00,,2013-04-22 00:42:00,
2013-04-21 19:52:00,65.0,43.0,30.14,SSE,168,0.0,11.0,44,0.00,,,0.00,,2013-04-22 00:52:00,
2013-04-21 20:01:00,64.0,43.0,30.14,SSE,168,0.0,11.0,47,0.00,,,0.00,,2013-04-22 01:01:00,
2013-04-21 20:12:00,64.0,43.0,30.14,SSE,168,0.0,11.0,47,0.00,,,0.00,,2013-04-22 01:12:00,
2013-04-21 20:21:00,62.0,44.0,30.14,SSE,168,0.0,11.0,51,0.00,,,0.00,,2013-04-22 01:21:00,
2013-04-21 20:32:00,61.0,44.0,30.14,SSE,168,0.0,11.0,54,0.00,,,0.00,,2013-04-22 01:32:00,
2013-04-21 20:41:00,61.0,44.0,30.14,SSE,168,0.0,11.0,54,0.00,,,0.00,,2013-04-22 01:41:00,
2013-04-21 20:52:00,59.0,44.0,30.15,SSE,168,0.0,11.0,57,0.00,,,0.00,,2013-04-22 01:52:00,
2013-04-21 21:02:00,58.0,45.0,30.15,SSE,168,0.0,11.0,61,0.00,,,0.00,,2013-04-22 02:02:00,
2013-04-21 21:11:00,57.0,45.0,30.15,SSE,168,0.0,11.0,63,0.00,,,0.00,,2013-04-22 02:11:00,
2013-04-21 21:21:00,57.0,45.0,30.15,SSE,168,0.0,11.0,63,0.00,,,0.00,,2013-04-22 02:21:00,
2013-04-21 21:32:00,57.0,45.0,30.15,SSE,168,0.0,11.0,64,0.00,,,0.00,,2013-04-22 02:32:00,
2013-04-21 21:42:00,57.0,45.0,30.15,SSE,168,0.0,11.0,64,0.00,,,0.00,,2013-04-22 02:42:00,
2013-04-21 21:52:00,56.0,44.0,30.15,SSE,168,0.0,11.0,64,0.00,,,0.00,,2013-04-22 02:52:00,
2013-04-21 22:02:00,56.0,44.0,30.15,SSE,168,0.0,11.0,65,0.00,,,0.00,,2013-04-22 03:02:00,
2013-04-21 22:11:00,56.0,44.0,30.15,SSE,168,0.0,11.0,65,0.00,,,0.00,,2013-04-22 03:11:00,
2013-04-21 22:22:00,55.0,44.0,30.15,SSE,168,0.0,11.0,66,0.00,,,0.00,,2013-04-22 03:22:00,
2013-04-21 22:33:00,55.0,44.0,30.15,SSE,168,0.0,11.0,67,0.00,,,0.00,,2013-04-22 03:33:00,
2013-04-21 22:42:00,55.0,44.0,30.15,SSE,168,0.0,11.0,67,0.00,,,0.00,,2013-04-22 03:42:00,
2013-04-21 22:52:00,54.0,44.0,30.14,SSE,168,0.0,11.0,68,0.00,,,0.00,,2013-04-22 03:52:00,
2013-04-21 23:02:00,54.0,44.0,30.14,SSE,168,0.0,11.0,68,0.00,,,0.00,,2013-04-22 04:02:00,
2013-04-21 23:12:00,54.0,44.0,30.14,SSE,168,0.0,11.0,68,0.00,,,0.00,,2013-04-22 04:12:00,
2013-04-21 23:23:00,53.0,43.0,30.14,SSE,168,0.0,11.0,70,0.00,,,0.00,,2013-04-22 04:23:00,
2013-04-21 23:32:00,53.0,44.0,30.14,SSE,168,0.0,11.0,71,0.00,,,0.00,,2013-04-22 04:32:00,
2013-04-21 23:43:00,53.0,44.0,30.14,SSE,168,0.0,11.0,71,0.00,,,0.00,,2013-04-22 04:43:00,
2013-04-21 23:53:00,52.0,43.0,30.15,SSE,168,0.0,11.0,71,0.00,,,0.00,,2013-04-22 04:53:00,